[[{"header":{"parameterUnit":"m.s-1","parameterCategory":1,"la1":30.2991,"la2":30.254,"lo1":-89.0895,"lo2":-89.0444,"dy":0.0017,"dx":0.0017,"nx":28,"ny":28,"refTime":"2025-02-06T09:00:00:Z","depth":0,"parameterNumber":2,"parameterNumberName":"U-component_of_WINDS"},"data":[0,0,0,0,0,0,0,0,0,0,0,0,0,0,0,0,0,0,0,0,0,0,0,0,0,0,0,0,0,0,0,0,0,0,0,0,0,0,0,0,0,0,0,0,0,0,0,0,0,0,0,0,0,0,0,0,0,0,-2.2096,-2.2096,0,-2.211,-2.211,-2.211,-2.2064,-2.2062,-2.2061,-2.206,-2.2075,-2.2077,-2.2079,0,0,0,0,0,0,0,0,0,0,0,0,0,-2.2032,-2.2033,-2.2096,-2.2096,-2.2097,-2.211,-2.211,-2.211,-2.2064,-2.2062,-2.2061,-2.2059,-2.2075,-2.2077,-2.2079,0,0,0,0,0,0,0,0,0,0,0,0,0,-2.2054,-2.2033,-2.2096,-2.2075,-2.2073,-2.211,-2.211,-2.211,-2.2064,-2.2062,-2.206,-2.2058,-2.2074,-2.2077,-2.2079,-2.2137,0,0,-2.2087,-2.2088,0,0,0,0,0,0,0,0,-2.2053,-2.2056,-2.2078,-2.2077,-2.2075,-2.2083,-2.2093,-2.212,-2.2065,-2.2068,-2.206,-2.2057,-2.208,-2.2082,-2.2089,-2.2138,-2.2139,-2.2087,-2.2089,-2.209,-2.2091,0,0,0,0,0,0,0,-2.2051,-2.2056,-2.2102,-2.2078,-2.2076,-2.2065,-2.2066,-2.2098,-2.2085,-2.2067,-2.2064,-2.2066,-2.2078,-2.2087,-2.2089,-2.2139,-2.2087,-2.2089,-2.2091,-2.2092,-2.2237,-2.2239,0,0,0,0,0,0,-2.2052,-2.2055,-2.2101,-2.2102,-2.2058,-2.2068,-2.2069,-2.2083,-2.2085,-2.2083,-2.2068,-2.2064,-2.2083,-2.2086,-2.2089,-2.2157,-2.209,-2.2092,-2.2094,-2.2235,-2.2237,-2.224,0,0,0,0,0,0,-2.2051,-2.2057,-2.2101,-2.2077,-2.2082,-2.2072,-2.2087,-2.2084,-2.2092,-2.2085,-2.2083,-2.2079,-2.2082,-2.2086,-2.2126,-2.2157,-2.2094,-2.2096,-2.2232,-2.2236,-2.2239,-2.2294,0,0,0,0,0,0,-2.2049,-2.2057,-2.2078,-2.2078,-2.2084,-2.2136,-2.2089,-2.2086,-2.2096,-2.2091,-2.2095,-2.2093,-2.208,-2.2122,-2.2128,-2.216,-2.2098,-2.2229,-2.2234,-2.2238,-2.229,-2.2299,-2.2308,0,0,0,0,0,-2.2047,-2.2094,-2.208,-2.2085,-2.211,-2.2138,-2.2141,-2.2125,-2.2099,-2.2121,-2.2117,-2.2093,-2.2153,-2.2127,-2.2133,-2.2166,-2.2227,-2.2232,-2.2237,-2.2286,-2.2297,-2.2307,0,0,0,0,0,0,-2.2098,-2.2093,-2.2077,-2.2125,-2.2133,-2.213,-2.2157,-2.2138,-2.2153,-2.2148,-2.2128,-2.2129,-2.2172,-2.2173,-2.2144,-2.2223,-2.2186,-2.2192,-2.222,-2.2231,-2.224,-2.2239,-2.21,0,0,0,0,0,-2.2115,-2.2137,-2.2132,-2.2175,-2.2179,-2.2168,-2.218,-2.2166,-2.2173,-2.2176,-2.2175,-2.2183,-2.2204,-2.2218,-2.2236,-2.229,-2.229,-2.2316,-2.2325,-2.2332,-2.2338,-2.2366,-2.2378,-2.2257,-2.2257,-2.2257,0,0,-2.2149,-2.215,-2.2165,-2.2185,-2.2189,-2.2213,-2.2171,-2.2198,-2.2216,-2.2181,-2.2218,-2.2218,-2.2225,-2.2272,-2.2293,-2.2274,-2.2372,-2.2339,-2.2345,-2.2346,-2.2373,-2.2384,-2.2395,-2.226,-2.226,-2.2259,0,0,-2.2225,-2.2227,-2.2263,-2.2268,-2.2275,-2.2267,-2.2276,-2.2277,-2.2275,-2.2312,-2.2286,-2.2308,-2.2344,-2.235,-2.2358,-2.2437,-2.2416,-2.2444,-2.2491,-2.2519,-2.2528,-2.2536,-2.2564,-2.2575,-2.245,-2.245,-2.245,0,-2.2267,-2.2302,-2.2284,-2.2313,-2.2323,-2.2292,-2.2328,-2.2334,-2.2347,-2.2354,-2.2333,-2.2378,-2.2381,-2.2429,-2.2448,-2.2456,-2.2466,-2.2443,-2.2528,-2.2536,-2.2544,-2.257,-2.2581,-2.2454,-2.2453,-2.2453,-2.2453,0,-2.2354,-2.2379,-2.2407,-2.2419,-2.2432,-2.2465,-2.2453,-2.2468,-2.2454,-2.2449,-2.2488,-2.249,-2.2509,-2.252,-2.2507,-2.2566,-2.2555,-2.2531,-2.2494,-2.2559,-2.2583,-2.2593,-2.2458,-2.2457,-2.2456,-2.2455,0,0,-2.246,-2.2463,-2.2474,-2.2479,-2.2484,-2.2504,-2.2536,-2.2553,-2.2567,-2.2577,-2.2603,-2.2635,-2.2614,-2.2623,-2.2611,-2.2635,-2.2698,-2.2609,-2.2609,-2.2625,-2.2763,-2.278,-2.2792,-2.2684,-2.2686,-2.2687,-2.2763,0,-2.2534,-2.2588,-2.2573,-2.2626,-2.2649,-2.262,-2.2648,-2.2655,-2.2651,-2.2671,-2.2667,-2.2689,-2.266,-2.2665,-2.2688,-2.2685,-2.2725,-2.268,-2.2708,-2.271,-2.2706,-2.2805,-2.2823,-2.2894,-2.2772,-2.2774,-2.2775,0,-2.2627,-2.264,-2.2696,-2.2698,-2.2707,-2.2732,-2.2748,-2.2767,-2.2774,-2.277,-2.2781,-2.2763,-2.2795,-2.2758,-2.2802,-2.2772,-2.2783,-2.2783,-2.2786,-2.2787,-2.2745,-2.2808,-2.2916,-2.2926,-2.279,-2.2789,-2.2788,0,-2.2698,-2.2731,-2.2768,-2.2774,-2.2777,-2.2796,-2.2798,-2.2803,-2.2815,-2.2829,-2.2837,-2.2854,-2.2864,-2.2879,-2.2867,-2.2841,-2.2913,-2.2875,-2.291,-2.291,-2.2925,-2.2925,-2.3035,-2.2934,-2.2934,-2.2934,-2.2934,0,-2.2782,-2.2817,-2.28,-2.2823,-2.2862,-2.2845,-2.2884,-2.2884,-2.2889,-2.2912,-2.2889,-2.2911,-2.2894,-2.2915,-2.2907,-2.2944,-2.2949,-2.2947,-2.2944,-2.2948,-2.2948,-2.2954,-2.2949,-2.2937,-2.2936,-2.2936,-2.2935,0,-2.2868,-2.2858,-2.2897,-2.2897,-2.2898,-2.2927,-2.2927,-2.2949,-2.2944,-2.2973,-2.2979,-2.2971,-2.2995,-2.2985,-2.301,-2.3004,-2.3052,-2.3043,-2.3049,-2.3047,-2.3082,-2.3079,-2.32,-2.3215,-2.3105,-2.3106,-2.3107,0,-2.2921,-2.2947,-2.295,-2.2964,-2.2968,-2.299,-2.3001,-2.2986,-2.3,-2.3011,-2.3031,-2.3053,-2.3069,-2.3108,-2.3105,-2.3124,-2.3115,-2.3156,-2.3118,-2.3121,-2.3115,-2.3113,-2.3116,-2.3164,-2.3165,-2.3166,-2.3167,0,-2.3017,-2.3011,-2.3028,-2.3045,-2.306,-2.3072,-2.3082,-2.3095,-2.308,-2.3097,-2.312,-2.3133,-2.3158,-2.318,-2.3197,-2.32,-2.3181,-2.3179,-2.3188,-2.3193,-2.3195,-2.3194,-2.307,-2.3176,-2.3175,-2.3175,-2.3174,-2.3174,-2.3087,-2.3109,-2.3115,-2.3136,-2.3142,-2.3152,-2.3173,-2.317,-2.3189,-2.3208,-2.3199,-2.3226,-2.3234,-2.3255,-2.326,-2.3282,-2.3266,-2.3279,-2.3282,-2.3286,-2.329,-2.3192,-2.3285,-2.3285,-2.3285,-2.3285,-2.3284,0,-2.3181,-2.3184,-2.3203,-2.3218,-2.3234,-2.3215,-2.3226,-2.3241,-2.3265,-2.3274,-2.329,-2.3317,-2.3339,-2.3338,-2.3357,-2.3375,-2.3367,-2.338,-2.3379,-2.338,-2.3304,-2.3294,-2.3387,-2.3387,-2.3387,-2.3387,-2.3387,-2.3387,-2.3232,-2.3268,-2.3263,-2.3303,-2.3305,-2.3331,-2.3339,-2.3348,-2.3355,-2.3386,-2.3403,-2.3402,-2.3407,-2.3427,-2.3446,-2.3445,-2.3453,-2.347,-2.3466,-2.3395,-2.3385,-2.3375,-2.3366,-2.3472,-2.3472,-2.354,-2.3541,-2.3541]},{"header":{"parameterUnit":"m.s-1","parameterCategory":1,"la1":30.2991,"la2":30.254,"lo1":-89.0895,"lo2":-89.0444,"dy":0.0017,"dx":0.0017,"nx":28,"ny":28,"refTime":"2025-02-06T09:00:00:Z","depth":0,"parameterNumber":3,"parameterNumberName":"V-component_of_WINDS"},"data":[0,0,0,0,0,0,0,0,0,0,0,0,0,0,0,0,0,0,0,0,0,0,0,0,0,0,0,0,0,0,0,0,0,0,0,0,0,0,0,0,0,0,0,0,0,0,0,0,0,0,0,0,0,0,0,0,0,0,1.7133,1.7134,0,1.721,1.7211,1.7212,1.7213,1.7212,1.7211,1.721,1.7289,1.7292,1.7295,0,0,0,0,0,0,0,0,0,0,0,0,0,1.6988,1.6991,1.7133,1.7134,1.7135,1.721,1.7211,1.7212,1.7213,1.7212,1.721,1.7209,1.7288,1.7291,1.7295,0,0,0,0,0,0,0,0,0,0,0,0,0,1.7057,1.6992,1.7133,1.7144,1.7146,1.721,1.7211,1.7212,1.7213,1.7212,1.721,1.7209,1.7287,1.7291,1.7296,1.7353,0,0,1.7309,1.7311,0,0,0,0,0,0,0,0,1.7053,1.7062,1.7142,1.7144,1.7146,1.72,1.7189,1.7259,1.7213,1.7188,1.721,1.7208,1.7261,1.7267,1.7285,1.7356,1.736,1.731,1.7313,1.7314,1.7316,0,0,0,0,0,0,0,1.7048,1.7059,1.7163,1.7143,1.7145,1.7146,1.7154,1.7202,1.7231,1.719,1.719,1.7199,1.7261,1.728,1.7287,1.7361,1.731,1.7314,1.7316,1.7318,1.7485,1.7487,0,0,0,0,0,0,1.7041,1.7055,1.7161,1.7166,1.7095,1.715,1.7159,1.7184,1.7231,1.7237,1.72,1.7199,1.7273,1.7281,1.7289,1.7361,1.7314,1.7319,1.7321,1.7484,1.7486,1.7488,0,0,0,0,0,0,1.7038,1.705,1.7158,1.711,1.7124,1.7154,1.7182,1.7187,1.7206,1.7239,1.7244,1.7214,1.7273,1.7283,1.7337,1.7364,1.7321,1.7325,1.7482,1.7484,1.7487,1.7504,0,0,0,0,0,0,1.7034,1.7049,1.7071,1.7111,1.7127,1.7204,1.7184,1.7189,1.7213,1.7212,1.7253,1.7259,1.7272,1.7331,1.7342,1.7369,1.7328,1.748,1.7483,1.7486,1.7502,1.7507,1.7512,0,0,0,0,0,1.7028,1.7072,1.7072,1.7085,1.7154,1.7206,1.7215,1.7229,1.7215,1.7238,1.726,1.7258,1.7359,1.7336,1.7349,1.7378,1.7478,1.7482,1.7486,1.7499,1.7506,1.7512,0,0,0,0,0,0,1.7035,1.7078,1.7078,1.7136,1.7167,1.7206,1.7235,1.7236,1.7272,1.7269,1.7286,1.7295,1.735,1.7369,1.7343,1.7437,1.7417,1.7423,1.7423,1.743,1.7435,1.743,1.7332,0,0,0,0,0,1.7043,1.7081,1.7116,1.7164,1.718,1.7204,1.7227,1.7236,1.7269,1.7282,1.7308,1.734,1.738,1.7405,1.7443,1.7504,1.7514,1.753,1.7535,1.7539,1.7546,1.7581,1.759,1.7501,1.75,1.75,0,0,1.706,1.7088,1.7111,1.7166,1.7191,1.7231,1.7216,1.7258,1.7288,1.7289,1.7343,1.7362,1.7399,1.7458,1.7485,1.7476,1.7572,1.7544,1.7547,1.7552,1.7586,1.7594,1.7602,1.7503,1.7503,1.7502,0,0,1.7112,1.7136,1.718,1.7206,1.7244,1.7261,1.7271,1.731,1.7323,1.7377,1.7379,1.7415,1.7482,1.7509,1.7532,1.7595,1.7596,1.7607,1.7635,1.7669,1.7677,1.7683,1.7708,1.7716,1.7612,1.7613,1.7613,0,1.7129,1.7188,1.7202,1.7245,1.727,1.7273,1.7318,1.7342,1.7391,1.7409,1.7397,1.7483,1.7508,1.7574,1.7589,1.7607,1.762,1.7603,1.7674,1.7681,1.7687,1.7711,1.772,1.7614,1.7614,1.7614,1.7613,0,1.7208,1.7249,1.728,1.7328,1.7356,1.74,1.7421,1.7448,1.7454,1.7472,1.7527,1.7557,1.7603,1.7618,1.7624,1.7685,1.7679,1.7671,1.7651,1.7697,1.7719,1.7728,1.7616,1.7615,1.7615,1.7615,0,0,1.7267,1.7322,1.7334,1.7356,1.7399,1.7432,1.7476,1.752,1.7544,1.7578,1.7616,1.7673,1.7667,1.7692,1.7701,1.7731,1.7782,1.772,1.7721,1.7732,1.7854,1.7861,1.7872,1.7782,1.7783,1.7785,1.7851,0,1.7325,1.7404,1.7418,1.7488,1.7527,1.7531,1.7569,1.76,1.7618,1.7655,1.7674,1.7715,1.7702,1.7718,1.7747,1.777,1.7807,1.7765,1.7819,1.7821,1.7812,1.7883,1.7891,1.7952,1.786,1.7862,1.7863,0,1.7404,1.7441,1.7514,1.7554,1.7571,1.7605,1.7648,1.7682,1.7718,1.7729,1.7758,1.7764,1.7811,1.7788,1.7854,1.7825,1.7848,1.7862,1.7865,1.7872,1.7846,1.7895,1.7972,1.7982,1.7876,1.7875,1.7874,0,1.7443,1.751,1.7563,1.7582,1.7629,1.7654,1.7674,1.7708,1.7735,1.7772,1.7789,1.7831,1.7854,1.7887,1.7904,1.7885,1.7969,1.7947,1.7981,1.7981,1.8,1.7999,1.8085,1.8011,1.8011,1.8011,1.8011,0,1.7508,1.7554,1.7582,1.7615,1.7666,1.7682,1.7732,1.7752,1.7783,1.7821,1.7825,1.786,1.788,1.7918,1.7932,1.7986,1.7995,1.8007,1.801,1.8008,1.8007,1.8024,1.8021,1.8014,1.8013,1.8012,1.8012,0,1.7561,1.7581,1.764,1.7679,1.769,1.7727,1.7761,1.7794,1.7811,1.7859,1.7871,1.7898,1.7944,1.7964,1.8019,1.8029,1.8091,1.809,1.8079,1.8081,1.8115,1.8112,1.8217,1.8232,1.8146,1.8147,1.8147,0,1.7602,1.7637,1.7681,1.7707,1.7728,1.7769,1.7796,1.7813,1.7841,1.7885,1.7913,1.7958,1.7996,1.8068,1.8094,1.8137,1.8138,1.8172,1.8145,1.8142,1.8142,1.8141,1.8145,1.8178,1.8178,1.8179,1.818,0,1.7675,1.7683,1.7722,1.7765,1.7797,1.7832,1.7865,1.7886,1.7908,1.794,1.7986,1.8016,1.8073,1.8119,1.8164,1.8185,1.8187,1.8188,1.8198,1.8197,1.8191,1.8197,1.8095,1.8186,1.8185,1.8185,1.8184,1.8184,1.7725,1.7757,1.7793,1.7837,1.7864,1.7895,1.7929,1.7951,1.799,1.8038,1.8045,1.8096,1.8132,1.8192,1.8215,1.8256,1.8248,1.8262,1.8266,1.827,1.8274,1.8182,1.8263,1.8263,1.8263,1.8263,1.8263,0,1.7799,1.7823,1.7863,1.791,1.7945,1.7943,1.798,1.8009,1.8054,1.8087,1.8124,1.8179,1.8223,1.8252,1.8297,1.8324,1.8326,1.8336,1.8335,1.8341,1.8277,1.8265,1.8333,1.8333,1.8333,1.8333,1.8333,1.8333,1.7842,1.7898,1.7911,1.798,1.8003,1.8053,1.8075,1.8104,1.8131,1.8192,1.8229,1.8248,1.828,1.8327,1.8369,1.8376,1.8394,1.8404,1.8411,1.8352,1.8345,1.8338,1.8326,1.8407,1.8407,1.8472,1.8472,1.8473]}]]